• In Belarus
  • List of Countries
  • For 7 days
  • Water Temperature
  • Satellite Maps
  • Weather Map
  • Weather Widgets
  • user-avatar
    Login

    Hourly Weather Nuernberg

    Today, 20 September, Thursday

    Time Temperature Precipitation Wind Pressure Humidity
    00:00 +19°C° 0 mm 1 mps 738 mmHg 81%
    01:00 +19°C° 0 mm 1 mps 738 mmHg 83%
    02:00 +19°C° 0 mm 1 mps 738 mmHg 84%
    03:00 +18°C° 0 mm 1 mps 738 mmHg 85%
    04:00 +18°C° 0 mm 1 mps 737 mmHg 86%
    05:00 +18°C° 0 mm 1 mps 738 mmHg 86%
    06:00 +18°C° 0 mm 1 mps 738 mmHg 86%
    07:00 +18°C° 0 mm 1 mps 738 mmHg 85%
    08:00 +20°C° 0 mm 1 mps 738 mmHg 77%
    09:00 +23°C° 0 mm 2 mps 738 mmHg 70%
    10:00 +25°C° 0 mm 2 mps 738 mmHg 62%
    11:00 +26°C° 0 mm 2 mps 738 mmHg 57%
    12:00 +27°C° 0 mm 2 mps 737 mmHg 53%
    13:00 +28°C° 0 mm 2 mps 737 mmHg 48%
    14:00 +28°C° 0 mm 2 mps 737 mmHg 48%
    15:00 +28°C° 0 mm 2 mps 736 mmHg 48%
    16:00 +28°C° 0 mm 2 mps 736 mmHg 49%
    17:00 +26°C° 0 mm 2 mps 736 mmHg 56%
    18:00 +24°C° 0 mm 2 mps 735 mmHg 64%
    19:00 +22°C° 0 mm 1 mps 735 mmHg 71%
    20:00 +21°C° 0 mm 1 mps 735 mmHg 74%
    21:00 +19°C° 0 mm 2 mps 735 mmHg 77%
    22:00 +19°C° 0 mm 2 mps 735 mmHg 81%
    23:00 +18°C° 0 mm 2 mps 735 mmHg 82%

    Tomorrow, 21 September, Friday

    Time Temperature Precipitation Wind Pressure Humidity
    00:00 +18°C° 0 mm 2 mps 734 mmHg 84%
    01:00 +17°C° 0 mm 2 mps 734 mmHg 86%
    02:00 +17°C° 0 mm 2 mps 734 mmHg 87%
    03:00 +17°C° 0 mm 2 mps 733 mmHg 88%
    04:00 +16°C° 0 mm 2 mps 733 mmHg 90%
    05:00 +16°C° 0 mm 2 mps 733 mmHg 88%
    06:00 +16°C° 0 mm 3 mps 732 mmHg 87%
    07:00 +17°C° 0 mm 3 mps 732 mmHg 85%
    08:00 +19°C° 0 mm 3 mps 732 mmHg 75%
    09:00 +22°C° 0 mm 4 mps 732 mmHg 65%
    10:00 +25°C° 0 mm 5 mps 732 mmHg 55%
    11:00 +26°C° 0 mm 5 mps 732 mmHg 51%
    12:00 +27°C° 0 mm 6 mps 732 mmHg 47%
    13:00 +28°C° 0 mm 7 mps 732 mmHg 43%
    14:00 +27°C° 0 mm 6 mps 732 mmHg 46%
    15:00 +26°C° 0 mm 6 mps 732 mmHg 50%
    16:00 +25°C° 0 mm 5 mps 732 mmHg 54%
    17:00 +22°C° 0.2 mm 5 mps 733 mmHg 63%
    18:00 +20°C° 0.2 mm 4 mps 734 mmHg 73%
    19:00 +18°C° 0.2 mm 4 mps 734 mmHg 83%
    20:00 +16°C° 0.1 mm 3 mps 735 mmHg 83%
    21:00 +14°C° 0.1 mm 3 mps 736 mmHg 83%
    22:00 +13°C° 0.1 mm 3 mps 736 mmHg 83%
    23:00 +13°C° 0 mm 2 mps 737 mmHg 82%

    Day after tomorrow, 22 September, Saturday

    Time Temperature Precipitation Wind Pressure Humidity
    00:00 +12°C° 0 mm 2 mps 737 mmHg 82%
    01:00 +12°C° 0 mm 2 mps 737 mmHg 81%
    02:00 +12°C° 0 mm 2 mps 738 mmHg 79%
    03:00 +12°C° 0 mm 2 mps 738 mmHg 78%
    04:00 +12°C° 0 mm 2 mps 739 mmHg 76%
    05:00 +12°C° 0.1 mm 2 mps 739 mmHg 76%
    06:00 +12°C° 0.1 mm 2 mps 739 mmHg 76%
    07:00 +11°C° 0.1 mm 3 mps 739 mmHg 76%
    08:00 +12°C° 0 mm 3 mps 739 mmHg 70%
    09:00 +13°C° 0 mm 4 mps 740 mmHg 63%
    10:00 +14°C° 0 mm 4 mps 740 mmHg 57%
    11:00 +15°C° 0 mm 4 mps 739 mmHg 52%
    12:00 +17°C° 0 mm 4 mps 739 mmHg 47%
    13:00 +18°C° 0 mm 4 mps 739 mmHg 42%
    14:00 +18°C° 0 mm 4 mps 739 mmHg 43%
    15:00 +18°C° 0 mm 4 mps 739 mmHg 43%
    16:00 +18°C° 0 mm 4 mps 739 mmHg 43%
    17:00 +16°C° 0 mm 3 mps 739 mmHg 48%
    18:00 +15°C° 0 mm 2 mps 739 mmHg 53%
    19:00 +14°C° 0 mm 1 mps 739 mmHg 58%
    20:00 +13°C° 0 mm 1 mps 739 mmHg 58%
    21:00 +13°C° 0 mm 1 mps 739 mmHg 58%
    22:00 +13°C° 0 mm 1 mps 739 mmHg 58%
    23:00 +13°C° 0 mm 1 mps 739 mmHg 60%

    23 September, Sunday

    Time Temperature Precipitation Wind Pressure Humidity
    00:00 +12°C° 0 mm 1 mps 739 mmHg 61%
    01:00 +12°C° 0 mm 1 mps 738 mmHg 63%
    02:00 +12°C° 0.1 mm 1 mps 738 mmHg 67%
    03:00 +12°C° 0.1 mm 1 mps 738 mmHg 71%
    04:00 +12°C° 0.1 mm 1 mps 737 mmHg 76%
    05:00 +11°C° 1 mm 1 mps 737 mmHg 80%
    06:00 +10°C° 1 mm 2 mps 737 mmHg 85%
    07:00 +10°C° 1 mm 2 mps 737 mmHg 90%
    08:00 +12°C° 0.3 mm 2 mps 736 mmHg 90%
    09:00 +11°C° 0.3 mm 3 mps 735 mmHg 90%
    10:00 +12°C° 0.3 mm 4 mps 734 mmHg 90%
    11:00 +14°C° 0 mm 4 mps 733 mmHg 85%
    12:00 +17°C° 0 mm 4 mps 732 mmHg 80%
    13:00 +19°C° 0 mm 5 mps 731 mmHg 74%
    14:00 +20°C° 0 mm 4 mps 730 mmHg 72%
    15:00 +22°C° 0 mm 4 mps 729 mmHg 69%
    16:00 +24°C° 0 mm 3 mps 728 mmHg 67%
    17:00 +22°C° 0 mm 3 mps 727 mmHg 69%
    18:00 +22°C° 0 mm 4 mps 726 mmHg 71%
    19:00 +21°C° 0 mm 4 mps 725 mmHg 74%
    20:00 +21°C° 0.7 mm 5 mps 725 mmHg 77%
    21:00 +20°C° 0.7 mm 6 mps 724 mmHg 80%
    22:00 +20°C° 0.7 mm 6 mps 723 mmHg 83%
    23:00 +17°C° 1.2 mm 8 mps 723 mmHg 78%

    24 September, Monday

    Time Temperature Precipitation Wind Pressure Humidity
    00:00 +13°C° 1.2 mm 10 mps 723 mmHg 73%
    01:00 +11°C° 1.2 mm 11 mps 723 mmHg 68%
    02:00 +10°C° 0.5 mm 12 mps 724 mmHg 72%
    03:00 +10°C° 0.5 mm 12 mps 726 mmHg 76%
    04:00 +10°C° 0.5 mm 13 mps 727 mmHg 80%
    05:00 +9°C° 0.4 mm 12 mps 729 mmHg 80%
    06:00 +8°C° 0.4 mm 11 mps 731 mmHg 80%
    07:00 +7°C° 0.4 mm 10 mps 734 mmHg 81%
    08:00 +8°C° 0.2 mm 10 mps 735 mmHg 76%
    09:00 +10°C° 0.2 mm 9 mps 737 mmHg 72%
    10:00 +10°C° 0.2 mm 9 mps 738 mmHg 67%
    11:00 +11°C° 0.1 mm 9 mps 739 mmHg 62%
    12:00 +12°C° 0.1 mm 9 mps 739 mmHg 57%
    13:00 +12°C° 0.1 mm 9 mps 740 mmHg 52%
    14:00 +12°C° 0.1 mm 8 mps 740 mmHg 52%
    15:00 +12°C° 0.1 mm 8 mps 741 mmHg 53%
    16:00 +12°C° 0.1 mm 7 mps 741 mmHg 53%
    17:00 +10°C° 0 mm 6 mps 742 mmHg 57%
    18:00 +9°C° 0 mm 5 mps 742 mmHg 61%
    19:00 +8°C° 0 mm 4 mps 743 mmHg 66%
    20:00 +8°C° 0 mm 4 mps 743 mmHg 68%
    21:00 +7°C° 0 mm 4 mps 744 mmHg 71%
    22:00 +6°C° 0 mm 4 mps 745 mmHg 74%
    23:00 +6°C° 0 mm 4 mps 745 mmHg 75%

    25 September, Tuesday

    Time Temperature Precipitation Wind Pressure Humidity
    00:00 +5°C° 0 mm 3 mps 745 mmHg 77%
    01:00 +5°C° 0 mm 3 mps 746 mmHg 79%
    02:00 +5°C° 0 mm 3 mps 746 mmHg 80%
    03:00 +5°C° 0 mm 4 mps 746 mmHg 81%
    04:00 +4°C° 0 mm 4 mps 746 mmHg 82%
    05:00 +5°C° 0 mm 4 mps 746 mmHg 82%
    06:00 +5°C° 0 mm 4 mps 746 mmHg 82%
    07:00 +5°C° 0 mm 4 mps 747 mmHg 82%
    08:00 +7°C° 0 mm 4 mps 747 mmHg 77%
    09:00 +8°C° 0 mm 5 mps 747 mmHg 73%
    10:00 +10°C° 0 mm 5 mps 748 mmHg 68%
    11:00 +12°C° 0.1 mm 5 mps 748 mmHg 64%
    12:00 +13°C° 0.1 mm 4 mps 748 mmHg 60%
    13:00 +14°C° 0.1 mm 4 mps 747 mmHg 56%
    14:00 +14°C° 0.1 mm 4 mps 747 mmHg 56%
    15:00 +14°C° 0.1 mm 4 mps 747 mmHg 57%
    16:00 +14°C° 0.1 mm 4 mps 747 mmHg 57%
    17:00 +12°C° 0 mm 3 mps 747 mmHg 64%
    18:00 +12°C° 0 mm 2 mps 747 mmHg 71%
    19:00 +10°C° 0 mm 1 mps 747 mmHg 78%
    20:00 +10°C° 0 mm 1 mps 747 mmHg 80%
    21:00 +9°C° 0 mm 1 mps 747 mmHg 82%
    22:00 +9°C° 0 mm 1 mps 748 mmHg 84%
    23:00 +9°C° 0 mm 1 mps 747 mmHg 84%
    Show more